Weather reports worldwide

Advertisment
Boulmer, United Kingdom (3240): temperature & dewpoint: 16.03.2019 17:00:00 - 22.03.2019 17:00:00 (GMT)Boulmer, United Kingdom (3240): wind speed & gusts: 16.03.2019 17:00:00 - 22.03.2019 17:00:00 (GMT)Boulmer, United Kingdom (3240): wind direction: 16.03.2019 17:00:00 - 22.03.2019 17:00:00 (GMT)Boulmer, United Kingdom (3240): reduced air pressure: 16.03.2019 17:00:00 - 22.03.2019 17:00:00 (GMT)Boulmer, United Kingdom (3240): visibility: 16.03.2019 17:00:00 - 22.03.2019 17:00:00 (GMT)Boulmer, United Kingdom (3240): sunshine duration: 16.03.2019 17:00:00 - 22.03.2019 17:00:00 (GMT)Boulmer, United Kingdom (3240): precipitation: 16.03.2019 17:00:00 - 22.03.2019 17:00:00 (GMT)
Date & Time tt [°C] td [°C] ff [km/h] ff [kn] fx [km/h] fx [kn] dd ppp [hPa] vv [km] sd [min] rr [mm]
22.03.2019 17:00:00 10,0 8,6 18 10 - - SSW 1019,1 10 0 0,0
22.03.2019 16:00:00 11,5 7,9 31 17 54 29 SW 1018,7 10 30 0,0
22.03.2019 15:00:00 11,5 6,7 31 17 50 27 SW 1018,6 10 0 0,0
22.03.2019 14:00:00 11,5 6,6 31 17 57 31 SSW 1018,9 10 0 0,0
22.03.2019 13:00:00 11,6 6,0 37 20 57 31 SSW 1018,8 10 0 0,0
22.03.2019 12:00:00 12,0 5,8 39 21 59 32 SSW 1018,7 10 6 0,0
22.03.2019 11:00:00 13,0 7,0 37 20 59 32 SSW 1018,6 10 12 0,0
22.03.2019 10:00:00 12,2 7,4 26 14 46 25 SSW 1019,4 10 0 0,0
22.03.2019 09:00:00 11,6 7,4 28 15 48 26 SSW 1020,5 10 0 0,0
22.03.2019 08:00:00 11,2 8,0 31 17 - - SSW 1020,7 10 0 0,0
22.03.2019 07:00:00 9,8 7,8 15 8 - - SSE 1021,5 10 0 0,0
22.03.2019 06:00:00 9,1 7,1 5 3 - - SE 1021,6 10 0 0,0
22.03.2019 05:00:00 9,1 7,7 13 7 - - SSE 1022,1 20 0 0,0
22.03.2019 04:00:00 7,2 6,5 9 5 - - SSE 1022,8 13 0 0,0
22.03.2019 03:00:00 6,2 5,6 9 5 - - S 1024,0 10 0 0,0
22.03.2019 02:00:00 6,4 5,9 16 9 - - S 1024,7 13 0 0,0
22.03.2019 01:00:00 7,1 6,1 11 6 - - S 1025,5 10 0 0,0
22.03.2019 00:00:00 7,9 7,5 16 9 - - SW 1026,2 10 - 0,0
21.03.2019 23:00:00 7,6 6,9 11 6 - - SSW 1027,2 10 0 0,0
21.03.2019 22:00:00 9,4 8,4 9 5 - - S 1028,3 10 0 0,0
21.03.2019 21:00:00 9,1 8,0 11 6 - - S 1028,3 10 0 0,0
21.03.2019 20:00:00 9,8 7,6 5 3 - - S 1029,0 10 0 0,0
21.03.2019 19:00:00 11,2 8,5 11 6 - - SW 1029,2 10 0 0,0
21.03.2019 18:00:00 12,1 9,0 21 11 - - SW 1029,5 10 0 0,0
21.03.2019 17:00:00 12,9 9,3 18 10 - - SSW 1029,4 10 0 0,0
21.03.2019 16:00:00 13,5 9,5 16 9 - - SSW 1029,3 10 0 0,0
21.03.2019 15:00:00 14,1 9,6 15 8 - - SSW 1029,3 10 0 0,0
21.03.2019 14:00:00 14,9 9,2 16 9 - - WSW 1029,3 45 0 0,0
21.03.2019 13:00:00 15,0 9,4 24 13 - - WSW 1029,2 10 48 0,0
21.03.2019 12:00:00 16,2 10,4 24 13 - - WSW 1029,0 45 60 0,0
21.03.2019 11:00:00 15,1 9,8 21 11 - - WSW 1028,9 10 60 0,0
21.03.2019 10:00:00 14,2 9,3 22 12 - - WSW 1028,7 40 54 0,0
21.03.2019 09:00:00 12,4 8,3 21 11 - - WSW 1028,4 10 42 0,0
21.03.2019 08:00:00 10,9 7,8 13 7 - - SSW 1028,0 10 36 0,0
21.03.2019 07:00:00 9,5 7,5 13 7 - - ESE 1027,2 35 6 0,0
21.03.2019 06:00:00 9,2 7,3 11 6 - - SW 1026,9 10 0 0,0
21.03.2019 05:00:00 10,0 7,6 29 16 - - WSW 1026,0 10 0 0,0
21.03.2019 04:00:00 10,3 7,7 21 11 - - SW 1025,9 10 0 0,0
21.03.2019 03:00:00 11,0 8,5 28 15 - - SW 1025,7 10 0 0,0
21.03.2019 02:00:00 11,4 9,6 18 10 - - SW 1026,4 35 0 0,0
21.03.2019 01:00:00 11,5 9,6 21 11 - - SW 1026,3 35 0 0,0
21.03.2019 00:00:00 11,7 9,5 15 8 - - SW 1026,5 10 - 0,0
20.03.2019 23:00:00 11,3 9,0 16 9 48 26 SSW 1026,2 10 0 0,0
20.03.2019 22:00:00 11,7 9,3 29 16 - - SW 1026,2 40 0 0,0
20.03.2019 21:00:00 11,9 9,8 22 12 - - SSW 1026,4 10 0 0,0
20.03.2019 20:00:00 12,1 9,7 22 12 48 26 SW 1026,2 10 0 0,0
20.03.2019 19:00:00 12,4 9,8 31 17 - - SW 1025,9 35 0 0,0
20.03.2019 18:00:00 12,2 9,9 26 14 - - SW 1026,0 30 0 0,0
20.03.2019 17:00:00 12,1 9,7 22 12 - - SSW 1025,8 29 0 0,0
20.03.2019 16:00:00 12,3 9,5 29 16 - - SSW 1025,9 35 0 0,0
20.03.2019 15:00:00 12,7 9,6 21 11 - - SSW 1026,5 35 0 0,0
20.03.2019 14:00:00 13,4 10,0 22 12 - - SW 1026,9 35 6 0,0
20.03.2019 13:00:00 13,2 9,4 26 14 48 26 SW 1027,0 35 6 0,0
20.03.2019 12:00:00 13,5 9,7 22 12 - - S 1027,0 40 24 0,0
20.03.2019 11:00:00 12,8 9,7 22 12 - - SW 1026,8 50 0 0,0
20.03.2019 10:00:00 11,9 9,1 26 14 - - SW 1026,9 10 0 0,0
20.03.2019 09:00:00 11,7 8,8 21 11 - - SW 1026,8 10 0 0,0
20.03.2019 08:00:00 10,5 8,1 9 5 - - ESE 1026,3 30 0 0,0
20.03.2019 07:00:00 10,0 7,6 9 5 - - SW 1025,9 40 0 0,0
20.03.2019 06:00:00 10,3 7,7 21 11 - - WSW 1025,7 35 0 0,0
20.03.2019 05:00:00 10,2 7,9 11 6 - - WSW 1025,1 35 0 0,0
20.03.2019 04:00:00 10,5 7,9 16 9 - - WSW 1024,9 10 0 0,0
20.03.2019 03:00:00 10,5 7,4 18 10 - - WSW 1024,6 10 0 0,0
20.03.2019 02:00:00 10,8 7,4 11 6 - - W 1024,5 10 0 0,0
20.03.2019 01:00:00 11,1 7,4 29 16 - - WSW 1024,3 10 0 0,0
20.03.2019 00:00:00 10,5 7,6 21 11 - - WSW 1024,3 10 - 0,0
19.03.2019 23:00:00 10,6 7,9 18 10 - - SW 1023,9 35 0 0,0
19.03.2019 22:00:00 10,7 8,0 16 9 - - W 1023,7 40 0 0,0
19.03.2019 21:00:00 10,1 7,7 15 8 - - WSW 1023,0 45 0 0,0
19.03.2019 20:00:00 9,4 7,4 24 13 - - WSW 1022,2 10 0 0,0
19.03.2019 19:00:00 9,3 7,0 22 12 - - SW 1022,1 10 0 0,0
19.03.2019 18:00:00 9,9 6,8 34 18 52 28 WSW 1021,8 50 0 0,0
19.03.2019 17:00:00 10,7 7,2 34 18 52 28 WSW 1021,4 10 12 0,0
19.03.2019 16:00:00 11,0 7,2 37 20 54 29 SW 1020,7 10 6 0,0
19.03.2019 15:00:00 10,6 6,9 24 13 - - SW 1020,8 40 0 0,0
19.03.2019 14:00:00 10,7 7,6 18 10 - - S 1021,1 10 0 0,0
19.03.2019 13:00:00 10,5 6,2 21 11 - - SSW 1021,5 10 0 0,0
19.03.2019 12:00:00 10,2 7,0 26 14 - - SW 1021,9 27 0 0,0
19.03.2019 11:00:00 10,7 7,3 22 12 - - SSW 1021,8 45 12 0,0
19.03.2019 10:00:00 10,3 7,4 22 12 - - WSW 1021,9 40 12 0,0
19.03.2019 09:00:00 8,2 7,4 15 8 - - S 1022,0 10 6 0,0
19.03.2019 08:00:00 6,0 5,5 9 5 - - S 1022,1 13 0 0,0
19.03.2019 07:00:00 5,0 4,4 8 4 - - S 1022,0 10 12 0,0
19.03.2019 06:00:00 3,7 2,9 11 6 - - SSW 1021,9 28 0 0,0
19.03.2019 05:00:00 5,0 4,2 9 5 - - WSW 1021,7 40 0 0,2
19.03.2019 04:00:00 3,4 2,6 13 7 - - WSW 1022,0 10 0 0,0
19.03.2019 03:00:00 3,1 2,6 13 7 - - WSW 1021,9 35 0 0,0
19.03.2019 02:00:00 3,0 2,5 15 8 - - WSW 1021,9 45 0 0,0
19.03.2019 01:00:00 2,4 1,7 11 6 - - WSW 1021,8 50 0 0,0
19.03.2019 00:00:00 3,3 2,3 15 8 - - SW 1021,6 10 - 0,0
18.03.2019 23:00:00 3,6 2,2 13 7 - - WSW 1021,4 50 0 0,0
18.03.2019 22:00:00 3,7 2,2 13 7 - - WSW 1021,2 50 0 0,0
18.03.2019 21:00:00 3,8 2,1 13 7 - - WSW 1020,9 55 0 0,0
18.03.2019 20:00:00 3,3 2,1 5 3 - - WSW 1020,6 10 0 0,0
18.03.2019 19:00:00 5,3 4,1 9 5 - - SSE 1020,0 7 0 0,0
18.03.2019 18:00:00 6,5 4,9 15 8 - - SSE 1019,3 19 12 0,0
18.03.2019 17:00:00 7,3 4,7 15 8 - - SE 1018,7 28 6 0,0
18.03.2019 16:00:00 7,7 5,0 8 4 - - ENE 1018,3 10 6 0,0
18.03.2019 15:00:00 7,5 4,5 8 4 - - ESE 1018,0 10 12 0,0
18.03.2019 14:00:00 7,4 2,7 11 6 - - E 1017,7 26 18 0,0
18.03.2019 13:00:00 7,1 2,3 11 6 - - ESE 1017,8 10 6 0,0
18.03.2019 12:00:00 7,2 1,5 13 7 - - E 1017,4 10 12 0,0
18.03.2019 11:00:00 8,8 1,2 5 3 - - WSW 1017,1 10 60 0,0
18.03.2019 10:00:00 7,5 0,7 9 5 - - W 1016,6 10 60 0,0
18.03.2019 09:00:00 5,8 1,1 13 7 - - WSW 1016,2 10 60 0,0
18.03.2019 08:00:00 3,4 -0,1 16 9 - - WSW 1015,7 40 60 0,0
18.03.2019 07:00:00 2,0 -1,8 15 8 - - WSW 1015,2 10 18 0,0
18.03.2019 06:00:00 2,1 -2,3 18 10 - - W 1014,8 40 0 0,0
18.03.2019 05:00:00 2,1 -2,7 18 10 - - W 1014,2 40 0 0,0
18.03.2019 04:00:00 2,3 -3,0 18 10 - - W 1013,6 10 0 0,0
18.03.2019 03:00:00 2,3 -3,1 16 9 - - WSW 1013,3 40 0 0,0
18.03.2019 02:00:00 3,5 -2,7 18 10 - - W 1012,8 40 0 0,0
18.03.2019 01:00:00 3,5 -2,3 18 10 - - W 1012,3 40 0 0,0
18.03.2019 00:00:00 4,0 -2,0 21 11 - - W 1011,3 10 - 0,0
17.03.2019 23:00:00 4,2 -1,9 24 13 - - W 1010,7 40 0 0,0
17.03.2019 22:00:00 4,6 -1,2 24 13 - - WNW 1009,6 40 0 0,0
17.03.2019 21:00:00 5,0 -0,2 24 13 - - WNW 1008,9 10 0 0,0
17.03.2019 20:00:00 5,4 -0,1 21 11 - - WNW 1007,6 10 0 0,0
17.03.2019 19:00:00 5,6 0,2 18 10 - - WNW 1006,3 10 0 0,0
17.03.2019 18:00:00 6,1 0,7 21 11 - - WNW 1004,7 10 36 0,0
17.03.2019 17:00:00 6,4 1,0 22 12 - - WNW 1003,1 10 18 0,0
17.03.2019 16:00:00 8,0 1,9 22 12 - - WNW 1001,5 60 18 0,0
17.03.2019 15:00:00 6,4 2,8 29 16 48 26 WNW 1000,2 10 0 0,2
17.03.2019 14:00:00 9,0 0,4 37 20 57 31 WNW 998,7 55 48 0,0
17.03.2019 13:00:00 9,0 0,7 39 21 61 33 W 997,5 10 24 0,0
17.03.2019 12:00:00 8,3 -0,1 42 23 63 34 W 996,5 10 54 0,0
17.03.2019 11:00:00 7,5 -0,4 41 22 61 33 W 995,4 55 60 0,0
17.03.2019 10:00:00 6,4 -0,2 37 20 59 32 W 994,8 10 60 0,0
17.03.2019 09:00:00 5,4 -0,7 37 20 57 31 W 994,1 10 60 0,0
17.03.2019 08:00:00 4,1 -0,9 29 16 48 26 W 993,3 45 60 0,0
17.03.2019 07:00:00 3,5 -1,5 35 19 48 26 W 992,2 10 24 0,0
17.03.2019 06:00:00 3,3 -1,3 31 17 46 25 W 991,5 55 0 0,0
17.03.2019 05:00:00 3,4 -0,9 28 15 46 25 W 990,9 10 0 0,0
17.03.2019 04:00:00 3,4 -0,9 29 16 48 26 W 990,4 10 0 0,0
17.03.2019 03:00:00 3,5 -0,9 29 16 - - W 990,0 60 0 0,0
17.03.2019 02:00:00 3,2 -0,8 31 17 - - W 989,4 50 0 0,0
17.03.2019 01:00:00 3,3 -0,6 28 15 - - W 989,0 65 0 0,0
17.03.2019 00:00:00 3,1 -0,4 24 13 - - W 988,4 10 - 0,0
16.03.2019 23:00:00 3,2 -0,6 26 14 - - W 988,1 10 0 0,0
16.03.2019 22:00:00 3,5 -0,7 26 14 - - W 987,2 10 0 0,0
16.03.2019 21:00:00 3,5 0,0 28 15 54 29 W 986,2 10 0 0,0
16.03.2019 20:00:00 4,0 0,5 31 17 65 35 W 984,8 60 0 0,0
16.03.2019 19:00:00 4,4 0,3 35 19 68 37 W 982,4 10 0 0,0
16.03.2019 18:00:00 8,3 4,7 42 23 74 40 SW 980,2 10 24 0,0
16.03.2019 17:00:00 10,3 6,6 41 22 74 40 SW 978,9 55 12 0,0

tt = temperature
td = dewpoint
ff = wind speed
fx = gusts
dd = wind direction
ppp = reduced air pressure
vv = visibility
sd = sunshine duration
rr = precipitation

Next stations